New Bedford, MA

2:44 PM EDT on July 23, 2017 (GMT -0400)
New Bedford Regional

Weather History for KEWB - November, 2010

Change the Weather History Date:

Wednesday, November 24, 2010

  Actual Average Record
Temperature  
Mean Temperature 42 °F -  
Max Temperature 50 °F 49 °F 69 °F (1979)
Min Temperature 32 °F 34 °F 14 °F (2000)
Degree Days  
Heating Degree Days 22    
Moisture  
Dew Point 15 °F    
Average Humidity 32    
Maximum Humidity 52    
Minimum Humidity 18    
Precipitation  
Precipitation 0.00 in - - ()
Sea Level Pressure  
Sea Level Pressure 29.96 in    
Wind  
Wind Speed 12 mph (NW)    
Max Wind Speed 18 mph    
Max Gust Speed 31 mph    
Visibility 10 miles    
Events      
Averages and records for this station are not official NWS values.
T = Trace of Precipitation, MM = Missing Value Source: NWS Daily Summary

Daily Weather History Graph

Daily Weather History Graph

Search for Another Location

Airport or City:

Trip Planner

Search our weather history database for the weather conditions in past years. The results will help you decide how hot, cold, wet, or windy it might be!

Date:

Astronomy

Nov. 24, 2010 Rise Set
Actual Time 6:43 AM EST 4:17 PM EST
Civil Twilight 6:13 AM EST 4:47 PM EST
Nautical Twilight 5:38 AM EST 5:21 PM EST
Astronomical Twilight 5:05 AM EST 5:55 PM EST
Moon 7:00 PM EST (11/24) 9:29 AM EST (11/24)
Length of Visible Light 10h 34m
Length of Day
9h 33m
Waning Gibbous, 90% of the Moon is Illuminated
Nov 24
Waning Gibbous
Nov 28
Last Quarter
Dec 5
New
Dec 13
First Quarter
Dec 21
Full

Hourly Weather History & Observations

Time (EST) Temp. Windchill Dew Point Humidity Pressure Visibility Wind Dir Wind Speed Gust Speed Precip Events Conditions
12:53 AM 50.0 °F - 32.0 °F 50% 29.81 in 10.0 mi WNW 11.5 mph 20.7 mph N/A   Clear
1:53 AM 48.0 °F - 30.9 °F 52% 29.82 in 10.0 mi WNW 11.5 mph 18.4 mph N/A   Clear
2:53 AM 48.0 °F - 25.0 °F 41% 29.85 in 10.0 mi WNW 13.8 mph 27.6 mph N/A   Clear
3:53 AM 46.0 °F 40.6 °F 24.1 °F 42% 29.87 in 10.0 mi NW 11.5 mph 24.2 mph N/A   Clear
4:53 AM 45.0 °F 39.3 °F 23.0 °F 42% 29.88 in 10.0 mi WNW 11.5 mph 24.2 mph N/A   Scattered Clouds
5:53 AM 43.0 °F 36.8 °F 21.9 °F 43% 29.90 in 10.0 mi WNW 11.5 mph 18.4 mph N/A   Scattered Clouds
6:53 AM 42.8 °F 37.0 °F 23.0 °F 46% 29.92 in 10.0 mi WNW 10.4 mph 18.4 mph N/A   Partly Cloudy
7:53 AM 44.1 °F 37.4 °F 24.1 °F 45% 29.93 in 10.0 mi WNW 13.8 mph 23.0 mph N/A   Clear
8:53 AM 45.0 °F 38.5 °F 23.0 °F 42% 29.95 in 10.0 mi NW 13.8 mph 29.9 mph N/A   Clear
9:53 AM 46.4 °F 40.1 °F 21.2 °F 37% 29.96 in 10.0 mi NW 15.0 mph 31.1 mph N/A   Partly Cloudy
10:53 AM 46.9 °F - 17.1 °F 30% 29.96 in 10.0 mi NNW 13.8 mph 27.6 mph N/A   Clear
11:53 AM 48.0 °F - 18.0 °F 30% 29.96 in 10.0 mi WNW 18.4 mph 25.3 mph N/A   Clear
12:53 PM 48.0 °F - 16.0 °F 28% 29.95 in 10.0 mi NW 15.0 mph 27.6 mph N/A   Clear
1:53 PM 48.9 °F - 14.0 °F 25% 29.95 in 10.0 mi WNW 17.3 mph 26.5 mph N/A   Clear
2:53 PM 48.9 °F - 8.1 °F 19% 29.95 in 10.0 mi WNW 17.3 mph 29.9 mph N/A   Clear
3:53 PM 46.9 °F - 6.1 °F 19% 29.97 in 10.0 mi NW 13.8 mph 27.6 mph N/A   Clear
4:53 PM 44.1 °F 37.7 °F 3.9 °F 19% 29.99 in 10.0 mi NW 12.7 mph 23.0 mph N/A   Clear
5:53 PM 43.0 °F 37.7 °F 1.9 °F 18% 30.03 in 10.0 mi NNW 9.2 mph - N/A   Clear
6:53 PM 42.1 °F 34.2 °F 1.9 °F 19% 30.02 in 10.0 mi WNW 16.1 mph 28.8 mph N/A   Clear
7:53 PM 41.0 °F 34.3 °F 1.9 °F 20% 30.05 in 10.0 mi NW 11.5 mph 16.1 mph N/A   Clear
8:53 PM 39.9 °F 34.5 °F 1.9 °F 20% 30.04 in 10.0 mi NW 8.1 mph 17.3 mph N/A   Clear
9:53 PM 37.9 °F 32.1 °F 1.9 °F 22% 30.06 in 10.0 mi WNW 8.1 mph - N/A   Clear
10:53 PM 35.1 °F 32.2 °F 3.0 °F 26% 30.08 in 10.0 mi NW 3.5 mph - N/A   Clear
11:53 PM 32.0 °F - 5.0 °F 32% 30.10 in 10.0 mi Calm Calm - N/A   Clear